TimeAST,TemperatureF,Dew PointF,Humidity,Sea Level PressureIn,VisibilityMPH,Wind Direction,Wind SpeedMPH,Gust SpeedMPH,PrecipitationIn,Events,Conditions,WindDirDegrees,DateUTC
12:00 AM,82.4,75.2,79,29.86,-9999.0,North,-9999.0,-,N/A,,Unknown,0,2012-11-15 04:00:00
1:00 AM,82.4,77.0,84,29.86,-9999.0,North,-9999.0,-,N/A,,Unknown,0,2012-11-15 05:00:00
2:00 AM,82.4,77.0,84,29.83,-9999.0,North,-9999.0,-,N/A,,Unknown,0,2012-11-15 06:00:00
3:00 AM,80.6,77.0,89,29.80,-9999.0,North,-9999.0,-,N/A,,Unknown,0,2012-11-15 07:00:00
4:00 AM,80.6,77.0,89,29.80,-9999.0,North,-9999.0,-,N/A,,Unknown,0,2012-11-15 08:00:00
5:00 AM,81,77,84,,,East,4.6,,,,Clear,80,2012-11-15 09:00:00
5:00 AM,80.6,77.0,89,29.80,-9999.0,North,-9999.0,-,N/A,,Unknown,0,2012-11-15 09:00:00
6:00 AM,80.6,77.0,89,29.83,-9999.0,North,-9999.0,-,N/A,,Unknown,0,2012-11-15 10:00:00
7:00 AM,82.4,77.0,84,29.86,-9999.0,North,-9999.0,-,N/A,,Unknown,0,2012-11-15 11:00:00
8:00 AM,83,77,78,29.89,22,East,5.8,,,,,90,2012-11-15 12:00:00
8:00 AM,82.4,77.0,84,29.89,6.2,East,10.4,-,N/A,,Mostly Cloudy,90,2012-11-15 12:00:00
9:00 AM,84.2,77.0,79,29.89,6.2,East,10.4,-,N/A,,Mostly Cloudy,90,2012-11-15 13:00:00
10:00 AM,86.0,77.0,74,29.89,6.2,East,11.5,-,N/A,,Scattered Clouds,90,2012-11-15 14:00:00
11:00 AM,87,75,60,29.91,22,East,12.7,,,,Partly Cloudy,90,2012-11-15 15:00:00
11:00 AM,87.8,75.2,66,29.89,6.2,East,12.7,-,N/A,,Scattered Clouds,90,2012-11-15 15:00:00
12:00 PM,87.8,75.2,66,29.86,-9999.0,North,-9999.0,-,N/A,,Unknown,0,2012-11-15 16:00:00
1:00 PM,89.6,75.2,62,29.83,-9999.0,North,-9999.0,-,N/A,,Unknown,0,2012-11-15 17:00:00
2:00 PM,87.8,73.4,62,29.80,6.2,East,11.5,-,N/A,,Scattered Clouds,100,2012-11-15 18:00:00
4:00 PM,86.0,77.0,74,29.77,6.2,East,10.4,-,N/A,,Scattered Clouds,100,2012-11-15 20:00:00
5:00 PM,86.0,77.0,74,29.77,6.2,East,10.4,-,N/A,,Partly Cloudy,90,2012-11-15 21:00:00
6:00 PM,84.2,77.0,79,29.77,6.2,East,10.4,-,N/A,,Partly Cloudy,90,2012-11-15 22:00:00
7:00 PM,82.4,77.0,84,29.80,6.2,East,6.9,-,N/A,,Scattered Clouds,80,2012-11-15 23:00:00
8:00 PM,82.4,77.0,84,29.83,6.2,East,5.8,-,N/A,,Scattered Clouds,80,2012-11-16 00:00:00
9:00 PM,-9999,-9999,N/A,29.86,-9999.0,ENE,8.1,-,N/A,,Unknown,70,2012-11-16 01:00:00
10:00 PM,82.4,77.0,84,29.86,-9999.0,East,8.1,-,N/A,,Unknown,80,2012-11-16 02:00:00
11:00 PM,82.4,77.0,84,29.86,-9999.0,East,6.9,-,N/A,,Unknown,80,2012-11-16 03:00:00